Regional Weather Roundup
Issued by NWS

Home | Current Version | Previous Version | Text Only | Print | Product List | Glossary On
Versions: 1 2 3 4 5 6 7 8 9 10 11 12 13 14 15 16 17 18 19 20 21 22 23 24 25 26 27 28 29 30 31 32 33 34 35 36 37 38 39 40 41 42 43 44 45 46 47 48 49 50
000
ASUS43 KDTX 041610
RWRMI
MICHIGAN HOURLY REGIONAL WEATHER ROUNDUP
NATIONAL WEATHER SERVICE DETROIT/PONTIAC MI
1200 PM EDT WED MAY 04 2016

NOTE: "FAIR" INDICATES FEW OR NO CLOUDS BELOW 12,000 FEET WITH NO
SIGNIFICANT WEATHER AND/OR OBSTRUCTION TO VISIBILITY.

MIZ047>049-052>055-059>063-066>070-074>076-081>083-041700-
SOUTHEAST LOWER MICHIGAN

CITY           SKY/WX    TMP DP  RH WIND       PRES   REMARKS
ADRIAN         CLOUDY    56  46  69 SW14      29.57F
ALMA           DRIZZLE   46  45  96 NW13      29.58S
ANN ARBOR      CLOUDY    58  47  66 S14       29.57F
BAD AXE        CLOUDY    57  45  62 SE7       29.61S
CARO           CLOUDY    58  46  65 W7        29.57F
DETROIT CITY   PTSUNNY   59  43  55 S16       29.60S
DETROIT        CLOUDY    59  48  67 SE8       29.59F
FLINT          CLOUDY    62  47  57 SE10      29.56F
GROSSE ILE     CLOUDY    55  50  82 SE9       29.59F
HILLSDALE      LGT RAIN  47  45  90 W7        29.56S
HOWELL         CLOUDY    57  44  62 S8        29.56S

CITY           SKY/WX    TMP DP  RH WIND       PRES   REMARKS
JACKSON        LGT RAIN  52  46  80 S16       29.55S
LAMBERTVILLE   CLOUDY    59  46  62 SW10      29.59S
LANSING        LGT RAIN  53  45  74 CALM      29.55F
LAPEER         FAIR      61  44  52 S10G18    29.58S
MASON          LGT RAIN  54  46  75 S8        29.55S
MONROE         CLOUDY    59  50  73 S12G17    29.58F
MT. CLEMENS    CLOUDY    55  52  89 SE13      29.60S
PONTIAC        CLOUDY    58  44  60 S13G23    29.57F
PORT HOPE        N/A     49  46  90 SE14      29.60S
PORT HURON     CLOUDY    57  45  62 SE9       29.62S
TRI CITIES     CLOUDY    56  47  71 NE8       29.58S
MIDLAND        CLOUDY    49  46  89 N7        29.59R
TROY           PTSUNNY   60  47  61 SE7       29.60F
SAGINAW HB     CLOUDY    57  45  62 CALM      29.57S
$$
MIZ043>046-050>051-056>058-064>065-071>073-077>080-041700-
SOUTHWEST LOWER MICHIGAN

CITY           SKY/WX    TMP DP  RH WIND       PRES   REMARKS
BATTLE CREEK   LGT RAIN  46  42  86 NW16      29.58R
BENTON HARBOR  CLOUDY    43  38  82 N10G29    29.69R
BIG RAPIDS     LGT RAIN  43  40  86 N12G17    29.63R
COLDWATER      CLOUDY    47  43  88 NW15      29.59R
FREMONT        DRIZZLE   43  42  98 N17G25    29.65R
HOLLAND        LGT RAIN N/A N/A N/A NW10G18   29.66R
GRAND RAPIDS   LGT RAIN  46  42  86 NW15G25   29.61R
IONIA          LGT RAIN  44  43  96 N14       29.57R
KALAMAZOO      LGT RAIN  47  41  80 NW14G24   29.61R
LUDINGTON      CLOUDY    41  37  84 N17G26    29.72R
MARSHALL       LGT RAIN  48  45  90 W13G21    29.54S
MOUNT PLEASANT MIX PCPN  46  44  94 N12       29.59R
MUSKEGON       CLOUDY    45  39  79 NW21      29.67R
SOUTH HAVEN    CLOUDY    42  40  92 N13G28    29.67S
$$
MIZ016>042-041700-
NORTHERN LOWER MICHIGAN

CITY           SKY/WX    TMP DP  RH WIND       PRES   REMARKS
ALPENA         LGT RAIN  45  41  86 NE10G21   29.67R
BEAVER ISLAND  CLOUDY    44  36  74 N10G22    29.74R
BELLAIRE       LGT RAIN  42  40  91 N9G18     29.70R
CADILLAC       LGT RAIN  41  39  93 N13G22    29.64S
CHARLEVOIX     LGT RAIN  40  39  97 N12G18    29.75R WCI  33
FRANKFORT      CLOUDY    42  37  83 N10G26    29.73R
GAYLORD        LGT RAIN  44  42  93 NE10      29.66R FOG
GRAYLING       MIX PCPN  45  43  93 N8        29.66R
HARBOR SPRINGS DRIZZLE   43  42  95 N8        29.70R
HOUGHTON LAKE  RAIN      44  41  89 N12       29.63S FOG
MANISTEE       CLOUDY    41  34  75 N14G23    29.73R
OSCODA         PTSUNNY   53  41  63 NE10      29.63S
PELLSTON       LGT RAIN  45  41  86 N15       29.71R
ROGERS CITY    MIX PCPN  43  41  95 N6        29.69R
TRAVERSE CITY  LGT RAIN  42  38  85 N8G17     29.70R
$$
MIZ007>008-015-041700-
EASTERN UPPER MICHIGAN

CITY           SKY/WX    TMP DP  RH WIND       PRES   REMARKS
KINROSS          N/A     45  39  81 NW17G23   29.71S
MACKINAC ISLAN CLOUDY    44  44 100 N12G18    29.70S
NEWBERRY       CLOUDY    42  35  75 N16G23    29.76R
S. S. MARIE    CLOUDY    48  39  71 N9        29.72R
MUNISING         N/A     39  31  72 N25       29.84R WCI  28
$$
MIZ004>006-011>014-085-041700-
CENTRAL UPPER MICHIGAN

CITY           SKY/WX    TMP DP  RH WIND       PRES   REMARKS
MANISTIQUE     CLOUDY    45  34  65 N20G32    29.77R
ESCANABA       PTSUNNY   45  32  61 N18G29    29.81R
MENOMINEE      CLOUDY    46  34  61 N18       29.82S
SAWYER-GWINN   CLOUDY    36  32  87 N20G26    29.83R WCI  25
$$
MIZ001>003-009>011-084-041700-
WESTERN UPPER MICHIGAN

CITY           SKY/WX    TMP DP  RH WIND       PRES   REMARKS
IRON MOUNTAIN  CLOUDY    44  33  65 N21G28    29.83R
HOUGHTON       CLOUDY    39  30  70 N20G30    29.91R WCI  29
COPPER HARBOR    N/A     38  33  82 NE21      29.92R WCI  28
IRONWOOD         N/A     43  32  65 N9G18     29.92R
$$

ABBREVIATIONS USED IN REMARKS
   TC - TEMPERATURE IN CELSIUS
  WCI - WIND CHILL INDEX
   HX - HEAT INDEX
  VSB - VISIBILITY




USA.gov is the U.S. government's official web portal to all federal, state and local government web resources and services.